Tracking 19831 objects as of 23-Aug-2019
HD Live streaming from Space Station
objects crossing your sky now

COSMOS 2251 DEB

Track COSMOS 2251 DEB now!
10-day predictions


NORAD ID: 34333
Int'l Code: 1993-036PF
Perigee: 496.1 km
Apogee: 528.5 km
Inclination: 74.0 °
Period: 94.7 minutes
Semi major axis: 6883 km
RCS: 0.034 m2 (small)
Launch date: June 16, 1993
Source: Commonwealth of Independent States (former USSR) (CIS)
Launch site: PLESETSK MISSILE AND SPACE COMPLEX (PKMTR)

Note: This is SATELLITE DEBRIS
aabbcc
Your satellite tracking list
Your tracking list is empty




NASA's NSSDC Master Catalog

Two Line Element Set (TLE):
1 34333U 93036PF  19233.80886420  .00006710  00000-0  30912-3 0  9993
2 34333  74.0143  43.9962 0023533 313.5304  46.3938 15.20230867566728
Source of the keplerian elements: AFSPC